Theta_e
324 327 329 331 331 330 333 334 330 336 335 328 331 331 334 336 339 333 332 328 328 331 334 335 328 324 331 322 326 330 310 309 309 320 324 324 329 325 322 326 327 326 323 321 315 311 312 313 314
325 327 329 330 331 331 329 327 329 335 332 328 329 334 334 335 336 334 332 333 330 329 335 335 329 330 333 327 325 330 312 309 310 315 323 329 327 323 327 327 323 322 314 311 312 315 318 319 320
326 329 328 328 330 331 328 330 335 337 333 330 332 335 337 336 336 334 336 334 331 328 334 335 328 329 335 331 330 331 316 309 310 318 317 324 324 326 325 317 318 317 314 317 319 320 321 322 321
327 328 328 328 330 329 328 325 328 336 337 336 337 334 336 337 336 336 336 333 333 325 334 334 328 321 336 333 333 333 322 309 311 314 320 320 322 318 316 314 319 321 320 321 322 323 323 322 322
329 328 326 328 327 326 325 325 329 329 329 337 337 335 335 336 336 336 336 333 329 329 320 326 321 319 334 334 333 335 328 311 311 316 323 323 318 311 313 316 319 320 321 323 323 324 324 323 316
329 327 327 328 327 325 324 325 328 328 329 330 337 335 334 334 335 335 335 331 328 329 321 319 319 315 333 333 335 335 334 319 309 313 323 316 313 312 314 319 319 320 323 323 324 325 325 324 316
327 325 327 327 326 325 325 327 327 328 329 329 337 335 335 335 334 334 335 329 328 331 331 327 323 315 332 330 334 334 335 329 310 314 318 314 312 312 315 319 319 321 323 323 325 325 325 322 312
329 324 328 326 329 328 326 327 329 329 330 332 336 335 333 335 334 335 332 330 332 333 333 329 322 319 324 327 332 333 335 334 317 310 314 313 312 313 316 318 318 321 322 323 324 325 325 321 313
327 328 329 328 327 327 326 324 327 331 331 331 337 337 337 336 334 335 330 331 332 333 332 328 321 322 323 323 328 332 335 335 328 309 314 313 312 314 316 318 318 322 322 324 324 324 324 321 315
324 329 329 326 325 325 325 325 325 332 332 332 337 336 336 335 334 333 330 331 331 332 331 329 328 331 333 333 326 329 334 336 330 310 312 313 313 314 317 318 319 322 324 324 323 324 323 319 313
322 327 324 326 326 325 325 325 327 327 330 331 332 335 335 334 334 332 331 330 331 331 330 330 333 333 335 335 333 328 332 335 328 310 311 314 313 315 317 318 321 323 324 325 323 323 323 315 312
310 311 316 320 322 322 322 324 325 326 326 329 330 334 336 334 333 332 331 331 331 330 330 329 332 332 335 334 334 329 331 335 328 311 311 315 314 315 318 319 323 324 325 325 324 321 322 320 314
312 311 311 312 312 315 320 322 323 324 325 327 327 329 334 335 334 332 331 331 330 330 330 330 330 332 332 335 333 331 334 335 326 312 312 316 318 317 321 324 325 325 325 325 323 321 320 320 316
309 308 309 310 311 312 317 320 322 323 324 326 327 329 330 329 334 333 332 332 331 330 327 330 330 332 333 333 331 335 335 332 323 315 312 317 318 319 322 324 324 324 323 324 321 320 320 320 318
307 307 307 308 310 311 313 316 320 320 321 323 324 326 327 329 330 334 334 332 332 331 328 327 330 332 332 332 333 331 332 330 321 316 315 318 318 323 323 324 324 324 322 322 320 320 320 319 317
308 308 307 307 309 311 312 315 316 317 318 319 322 324 325 327 329 327 329 332 331 331 330 326 327 329 330 330 329 328 326 325 320 317 317 320 324 323 322 323 323 322 322 321 320 320 319 318 314
306 305 306 305 305 305 307 310 310 311 315 317 320 322 322 324 327 329 327 333 331 331 330 328 327 327 327 326 327 325 324 322 319 323 322 321 324 324 323 324 322 321 321 320 320 319 318 316 313
306 306 307 306 305 307 307 306 305 306 308 309 311 312 317 322 325 327 327 330 332 331 330 329 328 327 327 326 325 322 321 321 323 323 323 323 322 324 323 323 323 321 319 319 320 318 316 313 310
305 306 307 307 307 307 307 306 306 305 306 306 308 310 312 316 320 326 327 328 333 331 330 329 329 327 327 326 325 322 320 323 323 322 321 322 322 323 324 323 321 319 320 320 319 318 311 309 306
306 307 306 307 307 308 307 307 307 307 306 306 306 308 309 312 317 319 329 330 332 332 331 330 329 328 327 326 325 322 321 324 322 323 321 322 323 323 322 321 321 320 320 320 319 314 310 307 305
307 307 307 308 308 307 306 305 305 304 304 305 305 306 308 312 314 317 328 332 331 332 332 331 330 329 327 326 324 322 322 323 323 321 321 322 322 321 320 320 320 320 319 317 314 309 307 309 308
307 307 308 308 308 303 307 307 306 304 304 304 305 306 307 310 312 313 318 328 331 332 332 331 330 328 327 326 325 323 322 323 322 320 320 322 321 321 320 320 320 318 316 310 306 307 309 308 307
307 307 308 308 308 308 308 307 304 305 305 304 304 307 308 308 309 311 315 320 328 331 330 330 330 329 327 326 325 323 323 322 321 319 322 321 321 320 319 319 318 314 310 308 308 304 299 297 294
307 307 305 306 308 304 306 305 305 305 306 307 308 306 309 313 312 312 312 317 324 328 330 330 329 327 327 326 325 324 324 323 322 320 321 321 320 319 317 315 311 308 307 306 302 298 296 297 303
304 302 299 298 306 301 306 308 307 306 308 309 308 308 308 309 311 313 312 316 320 326 329 329 328 327 326 326 324 323 324 323 323 319 321 321 319 316 313 309 307 306 307 304 300 299 302 301 296
305 304 304 305 302 304 306 304 307 310 310 309 308 307 306 307 307 309 312 315 321 322 327 328 328 327 327 326 324 323 323 323 322 318 321 319 317 313 308 305 306 306 303 303 303 302 301 295 293
302 308 307 310 298 308 305 307 307 310 309 309 307 306 305 305 305 306 308 310 315 322 323 325 327 327 327 327 326 324 323 323 321 319 319 317 312 307 305 306 305 303 303 301 300 297 292 290 290
306 307 308 305 309 304 303 305 309 311 310 309 305 304 304 303 303 303 305 309 313 324 322 322 324 327 328 328 326 324 323 322 321 319 316 311 306 305 304 303 302 301 300 295 291 289 289 289 289
303 304 307 307 309 311 311 307 311 310 310 306 304 303 302 302 301 302 304 309 313 323 324 324 327 326 327 327 326 324 322 320 320 315 309 305 304 303 301 301 300 299 292 289 288 288 288 288 289
303 307 304 307 308 306 309 309 307 305 306 304 302 302 300 299 300 301 304 312 317 324 324 323 326 326 327 325 325 320 322 317 313 306 303 302 301 300 300 300 297 289 288 288 288 288 288 288 288
Wind_Speed
5 3 2 1 2 3 3 7 4 5 1 6 13 11 9 6 2 3 14 16 15 23 28 26 22 20 19 16 14 11 10 13 14 15 17 16 16 15 15 18 15 12 13 13 14 16 16 17 18
7 4 1 1 3 1 5 6 7 4 4 11 11 10 5 2 3 13 18 12 13 21 29 27 23 20 19 16 13 11 10 12 14 14 16 16 15 15 17 14 12 14 15 17 17 17 16 16 16
11 6 2 3 3 5 5 5 6 2 4 4 4 8 4 3 7 24 9 18 17 21 28 27 24 22 20 16 14 12 9 11 13 15 15 15 16 15 15 14 16 17 18 17 17 16 15 14 14
7 2 5 2 6 9 8 8 4 2 3 1 6 6 8 4 12 15 20 21 17 20 27 26 24 23 22 18 14 13 10 9 12 14 15 14 14 14 14 16 18 17 16 16 15 14 14 13 12
3 4 2 3 8 8 9 10 8 2 2 4 5 7 9 10 9 10 26 21 18 19 22 24 23 24 24 20 16 13 10 9 11 14 15 14 13 13 15 17 16 15 15 14 14 13 13 12 12
4 3 1 6 7 8 9 21 11 2 4 11 6 11 6 9 11 16 25 22 19 17 20 21 23 26 24 21 18 16 12 9 11 14 15 13 13 15 16 16 15 14 13 12 11 11 11 11 11
3 1 4 4 6 6 9 22 5 6 2 5 5 6 9 15 11 26 24 23 20 17 17 19 23 27 26 22 21 18 15 9 10 13 14 13 14 15 16 15 13 12 11 10 9 9 9 11 11
5 3 3 5 6 7 9 5 6 8 6 5 6 6 7 19 18 25 21 22 22 21 19 19 23 26 27 24 22 19 17 13 9 11 12 13 13 14 14 13 12 10 9 8 7 7 7 9 11
5 2 6 7 8 6 22 7 10 4 7 6 4 8 7 17 24 27 27 26 24 23 21 22 26 26 26 25 24 21 19 17 11 10 12 13 14 16 15 13 11 9 8 7 6 5 5 5 8
7 4 6 5 5 6 15 12 18 7 9 7 6 7 11 19 28 30 34 35 31 27 22 23 26 24 26 28 27 25 22 20 15 12 14 14 15 16 15 13 11 9 8 6 5 5 3 3 4
5 10 6 13 20 21 15 19 18 7 5 9 13 19 20 22 28 30 32 34 35 30 25 22 27 26 27 30 30 28 25 24 18 14 15 16 17 17 15 13 11 9 7 5 3 3 2 2 3
7 15 14 11 21 18 9 15 14 19 10 9 12 10 24 25 29 32 32 31 36 33 28 24 28 27 28 28 29 28 27 26 19 17 19 19 18 17 15 13 11 10 10 8 5 3 3 3 4
3 8 20 22 22 23 20 9 11 23 26 19 12 12 18 23 27 31 32 30 31 35 31 28 28 29 28 28 30 27 30 26 20 18 21 20 18 18 17 14 13 12 10 9 7 6 5 4 4
15 15 17 17 20 19 12 16 11 7 21 23 21 15 17 20 25 28 33 35 33 33 36 32 31 31 30 30 28 32 31 22 21 19 22 22 18 19 16 16 16 15 13 12 9 8 7 6 5
14 8 11 10 10 6 16 18 23 25 26 30 32 28 20 26 26 28 29 38 38 36 34 39 35 32 32 31 34 33 30 25 22 21 21 21 20 20 20 21 19 19 17 14 10 10 9 8 6
4 3 4 6 7 8 10 19 5 17 30 36 32 34 29 29 35 31 29 36 40 38 37 40 40 38 37 35 31 29 27 25 24 22 21 24 23 23 24 22 20 19 17 15 12 12 12 9 7
3 4 9 9 20 10 4 6 7 20 26 23 29 35 42 34 36 38 34 31 42 40 39 42 42 39 35 34 34 31 29 26 24 21 21 25 27 26 25 24 23 21 17 16 14 15 13 10 9
8 8 7 9 8 20 20 22 10 24 25 26 27 25 24 27 39 40 37 35 39 42 40 42 43 40 36 34 32 32 30 28 31 30 27 27 29 28 24 26 25 21 19 17 17 16 14 13 10
7 9 11 13 13 12 16 24 20 18 28 24 25 27 28 29 18 40 42 39 36 44 41 42 41 42 42 39 39 38 36 36 34 33 30 30 28 28 28 26 25 25 21 19 18 17 17 17 14
9 12 12 9 9 13 14 26 23 20 25 33 31 30 29 30 33 22 41 46 42 47 46 43 41 41 45 42 41 40 39 38 34 32 30 30 30 28 28 26 26 24 22 21 19 19 19 18 17
8 9 10 12 12 12 12 13 4 8 14 27 33 38 34 30 30 26 21 43 44 47 47 44 43 43 47 43 44 41 40 39 37 35 32 33 29 27 26 26 26 24 23 21 19 19 18 18 18
5 5 11 13 11 3 6 9 7 12 13 10 23 27 32 32 37 36 24 29 43 46 45 45 44 45 42 44 46 45 45 46 43 38 36 34 31 29 27 27 26 25 24 23 22 20 17 15 13
8 11 11 16 15 6 10 4 6 11 9 11 8 18 27 31 37 44 31 27 32 41 44 43 45 43 42 49 48 47 46 45 42 38 38 36 33 30 28 27 26 26 24 23 19 16 15 14 10
12 6 19 9 3 3 4 6 7 4 5 15 18 19 18 19 26 36 35 30 33 38 45 43 44 42 41 48 50 48 47 46 43 41 39 36 33 30 28 27 26 26 25 22 19 18 14 12 8
7 5 4 5 1 6 3 3 11 12 9 6 12 23 27 25 25 14 32 32 36 38 45 46 43 43 42 45 49 48 47 41 40 39 40 37 33 31 29 28 27 24 19 19 17 15 15 13 10
4 2 3 4 3 9 11 6 4 2 6 14 24 29 30 37 31 26 18 8 37 40 43 47 42 41 43 46 50 48 46 39 40 39 40 38 35 32 30 28 24 22 20 19 17 16 13 10 9
4 4 5 5 3 3 3 7 5 13 17 23 26 30 31 32 35 33 30 23 13 42 46 45 43 44 47 49 51 51 46 42 39 40 40 39 35 32 29 27 25 23 21 21 17 11 13 13 11
4 1 4 2 5 5 5 6 4 15 18 16 21 28 33 32 33 38 32 29 19 36 43 44 46 46 50 53 53 49 45 41 37 41 41 38 34 32 29 27 24 23 21 18 17 16 14 11 10
4 4 3 4 4 4 6 6 3 11 14 17 19 30 32 31 33 33 34 26 21 31 43 42 42 43 49 56 53 50 45 41 38 38 36 34 34 32 30 29 24 23 19 19 17 15 13 9 8
4 3 5 4 5 7 8 8 4 18 17 21 25 30 32 27 27 29 29 21 17 29 42 43 44 43 48 51 48 48 44 40 38 35 37 35 36 35 24 28 27 22 19 17 15 12 11 8 7
Wind_Direction
333 354 23 35 64 79 248 256 234 287 241 78 81 79 117 60 91 186 131 176 181 174 176 173 170 165 164 161 150 133 116 126 128 125 124 121 117 114 112 95 95 101 100 101 98 93 90 86 84
316 19 93 244 123 165 265 271 316 59 342 87 86 64 75 96 92 142 148 192 192 182 176 174 172 165 169 164 156 142 125 132 132 133 128 126 125 117 111 117 133 107 102 100 98 94 89 84 80
302 326 286 152 181 207 222 139 98 41 15 35 84 81 90 115 137 150 179 185 191 184 180 175 173 169 175 168 161 153 132 136 139 138 136 134 129 128 124 123 112 107 107 104 99 93 87 80 75
327 331 246 148 230 236 240 288 220 174 343 9 86 79 94 133 152 171 170 188 192 179 184 179 178 177 176 174 169 162 141 143 147 143 140 139 136 132 126 125 116 116 110 104 96 90 82 73 69
267 256 258 226 239 257 262 256 285 62 318 234 180 162 120 157 200 167 170 188 189 179 183 187 184 182 176 179 177 169 154 146 154 150 143 144 146 137 132 128 123 117 108 103 98 86 75 65 63
284 236 273 236 259 263 273 267 239 193 306 318 165 129 153 193 197 170 171 178 189 185 176 182 185 182 179 180 179 176 173 157 162 156 154 154 149 146 142 137 129 122 116 109 98 85 71 61 64
185 51 232 254 254 270 251 265 188 190 214 291 224 116 158 185 168 168 172 175 184 187 186 188 186 183 181 184 185 184 181 178 172 163 168 159 157 153 149 143 135 128 118 107 95 83 67 59 66
250 146 230 234 259 277 277 327 216 195 225 255 235 169 181 191 168 166 172 167 182 190 198 198 188 184 187 187 190 190 189 189 188 182 178 160 160 157 155 151 145 135 120 105 96 90 80 71 84
262 241 232 225 234 263 293 306 292 237 205 218 222 187 196 175 170 170 168 173 191 201 204 197 189 188 189 192 193 193 197 196 196 188 171 166 168 168 165 160 149 140 128 114 106 94 89 87 99
197 217 227 250 261 258 280 301 294 203 209 219 173 188 180 172 177 178 180 180 188 201 201 197 188 196 198 198 198 195 200 202 198 195 181 176 177 176 171 166 157 148 133 125 115 95 88 102 114
252 240 270 281 290 290 293 301 303 250 215 204 212 182 187 180 187 189 194 196 191 196 201 199 186 193 197 199 200 197 200 204 196 198 189 182 181 181 178 172 162 155 145 161 143 134 127 154 165
296 278 276 276 283 296 280 287 285 288 266 246 222 213 207 197 198 198 204 203 196 194 199 192 193 197 195 200 203 201 204 205 195 200 192 193 186 185 179 170 169 166 171 193 216 235 212 188 176
238 351 328 322 317 316 312 280 274 285 284 281 281 224 211 220 210 207 208 214 200 198 196 197 196 200 199 200 203 203 204 207 204 201 195 199 195 190 172 173 188 180 189 214 230 238 244 238 211
321 326 315 315 308 305 290 291 276 256 272 277 277 245 231 225 227 213 206 214 213 208 201 197 200 198 202 203 205 200 208 206 210 206 201 200 197 179 179 191 200 202 210 226 236 243 245 244 240
306 304 313 280 269 259 303 278 262 264 269 275 270 268 251 241 234 225 221 211 217 215 209 201 204 199 201 202 202 210 213 211 210 209 202 198 189 182 194 198 208 212 220 229 227 233 233 232 234
289 315 321 298 338 267 208 248 204 292 261 260 264 266 265 249 242 241 238 218 219 218 210 205 201 210 210 205 205 206 208 211 210 207 201 190 188 199 204 206 208 218 222 226 227 228 229 233 223
8 326 320 325 327 339 297 314 304 312 280 264 259 257 260 258 250 235 238 226 214 223 213 205 201 204 210 214 210 205 210 208 201 195 198 197 194 200 205 210 212 217 221 223 226 233 238 234 227
310 313 301 301 309 311 303 293 284 294 292 289 291 290 281 271 246 235 232 231 216 217 219 206 204 201 208 211 207 201 205 198 194 195 196 203 204 203 206 209 216 221 222 227 228 224 223 228 222
290 290 287 282 282 282 283 286 290 283 285 280 276 279 279 279 280 244 232 231 216 211 217 210 207 209 209 207 205 201 198 196 201 200 205 208 209 212 212 214 220 227 226 228 227 222 217 207 198
311 299 295 284 299 293 291 284 282 270 263 268 271 271 271 276 274 293 235 221 216 208 215 218 216 209 207 210 208 206 196 197 204 199 204 211 209 213 213 219 224 229 227 225 226 221 212 197 185
301 290 295 302 319 301 310 291 276 292 270 265 258 260 258 260 268 272 241 218 217 208 212 218 216 209 209 207 206 203 199 201 201 203 208 206 212 212 217 220 222 224 223 222 215 205 200 206 200
300 300 318 313 327 297 33 291 296 278 285 282 261 257 254 254 256 259 256 236 223 213 210 220 218 212 212 205 209 208 205 204 204 206 209 209 210 210 215 220 220 218 216 209 200 196 205 210 206
258 291 297 291 281 316 285 239 289 295 287 272 268 268 267 256 251 257 243 237 232 222 205 214 221 213 208 208 215 210 213 211 212 211 208 210 208 211 218 218 217 214 203 196 190 181 170 162 166
283 323 301 286 223 269 224 178 266 282 266 352 341 352 341 352 286 258 248 235 231 227 208 210 219 216 207 211 218 213 217 215 214 212 206 204 206 210 210 209 207 198 192 183 174 157 142 143 145
15 354 319 346 330 221 323 262 256 295 359 2 339 341 337 337 331 328 260 229 228 225 214 210 217 216 210 214 218 214 221 222 222 217 209 206 204 203 203 204 194 187 182 169 155 152 160 140 163
329 82 240 285 280 288 283 233 235 47 355 352 358 341 332 330 328 315 307 313 237 224 224 212 214 219 215 214 214 216 219 221 218 216 209 207 205 199 197 184 180 170 157 147 147 136 129 159 159
276 299 258 276 250 258 251 285 267 8 354 357 342 330 324 320 317 309 301 289 274 232 226 221 216 212 216 215 215 215 214 217 213 210 207 204 199 192 176 169 163 152 150 140 124 139 138 139 147
138 287 318 316 302 291 283 276 260 346 337 341 334 329 322 316 311 308 301 290 270 227 224 225 221 210 205 211 213 209 210 207 210 208 203 197 187 171 162 153 145 143 132 123 136 136 138 148 138
322 330 352 264 248 284 320 283 61 351 338 335 326 325 316 309 308 307 303 295 258 218 219 209 201 208 202 206 206 207 202 201 207 202 194 180 164 156 147 142 142 122 131 137 136 142 140 138 136
208 198 8 278 319 273 267 277 121 353 337 329 321 316 312 306 307 303 305 298 240 213 203 205 202 205 205 201 202 197 200 193 192 182 163 155 149 141 140 137 121 139 139 137 143 142 138 140 127